Location: Kershaw
(34.5481°N, 80.5823°W)
Time: 11:25:41
(UTC+00:00)

Explorer 7 - Pass Details

Date: 11 October 2022
Orbit: 481 x 665 km, 50.3° (Epoch: 26 November)

Event Time Altitude Azimuth Distance (km) Brightness Sun altitude
Rises 19:57:29 0° 304° (NW) 2,960 10.8 32.3°
Reaches altitude 10° 19:59:57 10° 298° (WNW) 2,025 10.1 31.9°
Maximum altitude 20:04:21 43° 228° (SW) 864 10.0 31.2°
Drops below altitude 10° 20:08:32 10° 156° (SSE) 1,913 9.8 30.5°
Sets 20:10:49 0° 149° (SSE) 2,777 10.5 30.1°
